Flag for France Weather past 2 weeks in Le Mans, France

Now
64 °F

Mostly cloudy.


Feels Like: 64 °F
Forecast: 51 / 72 °F
Wind: 1 mph from North

Location: Le Mans Airport

Current Time: Aug 30, 2014 at 10:33:14 PM

Latest Report: Aug 30, 2014 at 10:00 PM


Visibility: N/A

Pressure: 30.12 "Hg

Humidity: 78%

Dew point: 57 °F

Location of Le MansLocation

Historic Weather in Le Mans — Graph

°F

Le Mans temperature yesterday

Maximum temperature yesterday: 73 °F (at 5:30 PM)
Minimum temperature yesterday: 59 °F (at 2:30 AM)
Average temperature yesterday: 66 °F

Past Weeks' High & Low Weather Summary

 TemperatureHumidityPressure
High77 °F (Aug 28, 4:30 PM)100% (Aug 16, 7:00 AM)30.24 "Hg (Aug 16, 7:00 AM)
Low43 °F (Aug 21, 5:30 AM)37% (Aug 20, 8:00 PM)29.68 "Hg (Aug 26, 6:00 AM)
Average62 °F74%30.02 "Hg
* Reported Aug 15 9:00 PM — Aug 30 9:30 PM, Le Mans, Weather by CustomWeather, © 2014

Note: Actual official high and low records may vary slightly from our data, if they occured in-between our weather recording intervals... More about our weather records

Advertising

Le Mans weather history for previous 24 hours

 ConditionsComfort  
Time TempWeatherWind HumidityBarometerVisibility
9:30 PM
Aug 30
64 °FOvercast.1 mph78%30.12 "HgN/A
9:00 PM66 °FOvercast.3 mph73%30.12 "HgN/A
8:30 PM66 °FOvercast.3 mph73%30.12 "HgN/A
8:00 PM66 °FOvercast.3 mph73%30.12 "HgN/A
7:30 PM66 °FOvercast.5 mph68%30.12 "HgN/A
7:00 PM66 °FOvercast.5 mph68%30.12 "HgN/A
6:30 PM68 °FOvercast.6 mph64%30.12 "HgN/A
6:00 PM68 °FMostly cloudy.5 mph69%30.12 "HgN/A
5:30 PM66 °FOvercast.6 mph68%30.12 "HgN/A
5:00 PM66 °FOvercast.7 mph68%30.12 "HgN/A
4:30 PM68 °FOvercast.8 mph64%30.12 "HgN/A
4:00 PM66 °FMostly cloudy.9 mph68%30.12 "HgN/A
3:30 PM66 °FMostly cloudy.6 mph68%30.15 "HgN/A
3:00 PM66 °FOvercast.8 mph68%30.15 "HgN/A
2:30 PM66 °FOvercast.9 mph68%30.15 "HgN/A
2:00 PM66 °FOvercast.8 mph68%30.15 "HgN/A
1:30 PM66 °FOvercast.7 mph68%30.12 "HgN/A
1:00 PM68 °FOvercast.7 mph64%30.12 "HgN/A
12:30 PM66 °FOvercast.7 mph68%30.15 "HgN/A
12:00 PM66 °FPartly sunny.7 mph68%30.15 "HgN/A
11:30 AM66 °FPartly sunny.7 mph68%30.15 "HgN/A
11:00 AM64 °FPartly sunny.5 mph73%30.15 "HgN/A
10:30 AM63 °FPartly sunny.5 mph77%30.15 "HgN/A
10:00 AM61 °FPassing clouds.5 mph83%30.15 "HgN/A
9:30 AM59 °FPassing clouds.5 mph88%30.15 "HgN/A
9:00 AM57 °FPassing clouds.2 mph88%30.15 "HgN/A
8:30 AM55 °FPassing clouds.2 mph94%30.15 "HgN/A
8:00 AM54 °FPassing clouds.3 mph100%30.15 "HgN/A
7:30 AM54 °FClear.2 mph94%30.12 "HgN/A
7:00 AM54 °FClear.2 mph94%30.12 "HgN/A
6:30 AM54 °FClear.2 mph94%30.12 "HgN/A
6:00 AM54 °FClear.2 mph94%30.12 "HgN/A
5:30 AM54 °FClear.1 mph94%30.12 "HgN/A
5:00 AM55 °FClear.1 mph94%30.12 "HgN/A
4:30 AM55 °FClear.3 mph94%30.12 "HgN/A
4:00 AM54 °FClear.1 mph94%30.12 "HgN/A
3:30 AM55 °FClear.2 mph88%30.12 "HgN/A
3:00 AM55 °FClear.2 mph94%30.12 "HgN/A
2:30 AM55 °FClear.2 mph94%30.12 "HgN/A
2:00 AM57 °FClear.1 mph88%30.12 "HgN/A
1:30 AM57 °FClear.2 mph88%30.12 "HgN/A
1:00 AM59 °FClear.2 mph82%30.12 "HgN/A
12:30 AM61 °FClear.3 mph77%30.12 "HgN/A
12:00 AM61 °FPassing clouds.3 mph83%30.12 "HgN/A
11:30 PM
Aug 29
63 °FClear.3 mph77%30.12 "HgN/A
11:00 PM63 °FClear.3 mph77%30.12 "HgN/A
Weather by CustomWeather, © 2014

See weather overviewHow to use our weather pages